Find Gao Fen 10-02

NORAD ID: 44622 Int'l Des: 2019-066 Owner: ZLZB Country: CN operational
LEOCIRCULARRETROGRADESSO

Live Position

Loading 3D Globe...

About Gao Fen 10-02

Description loading...

Upcoming Passes

Passes for default location (London). Set your location on the main map for personalized predictions.

Altitude History

Loading altitude history...

Two-Line Element Set

1 44622U 19066A 26111.88201953 .00000839 00000-0 11015-3 0 9998
2 44622 98.0459 65.0704 0004907 335.2442 24.8534 14.82929449354033
Epoch: Apr 21, 2026 • Age: 4 hours

Current Status

Altitude 643.8 km
Velocity 7.53 km/s
Sub-Earth Point -61.02°S, 2°W
Launch Date Oct 4, 2019
Age 6.5 years
Type other

Technical Details

Classification Payload
Mass 3000.00 kg
Dry Mass 3000.00 kg
Total Mass 3000.00 kg
Length 2.00 m
Diameter 2.00 m
Span 8.00 m
Shape Box + 3 Pan
Manufacturer SAST
Bus Type CS-L3000B
Phase Status In Orbit
Owner/State ZLZB/CN

Most Searched